Wind_Speed
4 4 6 6 3 3 3 2 12 10 10 10 12 11 9 11 8 6 5 4 2 5 6 8 6 5 3 7 9 7 6 7 6 5 8 7 4 4 4 6 6 8 9 7 5 3 3 4 2
3 3 1 2 3 4 1 2 6 4 7 10 9 8 9 10 8 6 5 3 1 6 7 6 6 2 7 2 13 9 8 9 8 6 7 5 1 2 5 8 7 9 10 7 4 2 4 5 1
5 3 1 3 3 2 5 4 4 1 2 4 5 6 8 8 9 5 3 1 2 9 7 4 4 4 2 8 13 8 6 8 9 7 5 4 3 2 3 7 7 9 9 7 4 4 5 5 3
3 3 4 3 3 4 6 4 1 8 1 1 0 3 4 7 8 5 2 1 3 7 6 6 6 5 5 7 10 5 6 7 7 4 2 3 1 3 4 6 7 9 7 6 6 5 6 6 5
3 4 4 5 4 3 5 8 9 8 2 3 2 2 2 4 5 4 1 1 5 6 6 7 7 8 6 4 5 3 4 4 4 3 2 7 4 6 5 9 8 8 7 6 4 5 5 5 7
6 6 7 6 7 5 7 7 4 3 3 4 5 5 4 2 2 3 1 3 5 7 8 7 7 7 7 5 3 2 4 2 1 4 7 6 3 3 7 8 8 6 6 6 5 5 6 4 8
8 8 10 8 6 8 7 8 6 5 5 6 6 5 2 1 2 1 2 4 5 7 8 7 7 9 8 7 6 3 3 2 1 2 7 13 7 4 3 6 7 6 6 6 6 6 7 6 11
5 5 7 6 3 5 5 7 9 9 9 9 7 6 3 1 3 3 2 6 6 7 9 8 6 7 8 9 7 5 4 3 2 2 6 10 9 7 6 6 5 5 5 6 5 8 6 10 10
2 2 1 1 4 1 2 2 4 7 11 10 8 6 3 3 6 5 5 8 7 8 9 8 7 6 7 9 7 6 4 1 3 2 4 7 6 5 5 7 5 3 4 5 4 7 7 12 8
2 4 3 4 5 4 4 3 4 5 5 11 10 6 6 6 7 7 7 8 9 10 11 9 8 7 8 9 7 5 4 3 3 1 2 5 4 5 3 4 7 3 4 6 3 5 6 10 6
0 3 5 8 6 4 4 3 5 7 2 6 8 7 9 9 8 6 6 8 11 11 12 9 9 7 8 9 8 6 6 6 4 2 0 3 1 4 3 1 5 5 3 4 4 5 4 6 3
1 4 10 7 4 4 3 1 5 4 2 2 2 5 6 5 7 5 6 7 9 13 14 11 10 8 8 10 9 7 8 9 6 4 1 1 6 6 3 1 3 3 3 4 4 6 6 8 9
2 3 6 4 4 5 2 1 2 2 2 4 5 6 7 6 8 7 7 6 9 13 15 14 12 10 8 10 10 9 11 11 8 5 2 5 8 7 3 4 3 2 4 4 6 9 6 7 9
1 2 4 5 6 7 6 4 2 1 3 5 6 7 9 9 11 11 7 8 9 12 12 12 11 9 6 7 9 12 13 12 8 4 6 7 8 3 6 2 6 1 7 9 8 10 8 10 10
5 3 5 9 5 7 9 7 6 4 4 6 8 9 10 10 9 13 8 8 10 12 12 12 11 8 5 4 8 15 14 13 9 7 6 9 9 7 3 2 7 6 10 10 10 10 11 11 11
6 7 9 8 10 10 10 8 8 8 6 7 8 9 10 10 9 11 9 10 12 13 13 12 12 9 5 2 6 13 13 12 11 8 5 10 9 8 1 3 12 11 9 12 11 10 10 10 10
8 8 9 11 9 13 11 11 9 7 6 8 9 10 10 9 13 13 11 12 13 13 14 11 10 10 7 6 7 10 13 14 14 10 7 12 10 8 7 7 9 12 11 9 11 10 11 11 9
10 9 12 13 11 11 13 13 10 6 4 7 10 10 11 13 12 13 14 14 13 13 13 13 10 10 9 8 8 9 12 15 15 12 10 11 10 8 9 11 12 7 4 8 9 11 12 12 11
11 11 11 15 16 12 8 8 11 9 6 5 7 12 13 13 15 14 16 14 13 13 13 13 11 11 9 9 9 9 12 15 17 14 12 12 9 8 11 8 7 9 10 9 11 12 12 11 12
12 11 14 14 15 14 11 12 14 10 10 11 9 9 13 18 16 17 18 11 12 11 8 9 12 11 9 8 8 10 13 16 15 16 14 10 7 5 12 9 8 10 12 11 9 10 10 10 13
13 13 13 14 14 17 13 11 14 12 11 15 16 12 16 16 18 12 12 10 13 10 7 7 10 11 10 9 10 14 16 19 14 17 15 11 8 10 5 9 14 9 7 12 9 9 8 9 9
11 15 12 15 17 18 17 10 9 10 13 15 12 13 17 14 15 13 12 12 15 13 9 8 10 11 10 9 7 12 17 20 19 18 13 9 9 9 11 11 11 11 10 7 7 8 6 5 7
11 17 15 16 18 20 19 14 9 13 13 8 7 4 7 3 8 11 12 13 15 14 12 8 10 11 10 10 8 11 17 16 14 14 14 13 12 14 9 12 10 9 9 10 7 8 7 6 5
16 17 19 18 20 17 17 15 9 7 6 1 4 4 8 9 7 9 7 6 13 14 14 6 10 9 10 10 10 11 18 19 17 15 14 16 15 15 13 15 13 10 8 9 10 8 7 6 5
19 22 23 21 20 17 18 15 12 9 7 4 2 4 5 9 10 9 5 6 10 12 13 10 10 9 12 12 13 11 13 14 12 11 15 17 19 18 15 16 15 14 11 10 11 8 7 6 6
26 26 25 26 22 15 15 15 7 16 9 12 9 6 5 8 8 5 8 9 10 11 12 12 8 8 12 13 14 14 13 12 13 14 15 15 15 16 16 19 16 15 14 12 10 8 8 7 9
24 24 24 25 24 21 16 14 9 17 17 15 15 14 9 7 10 7 6 8 10 8 7 9 11 10 13 13 15 15 16 15 14 13 17 17 16 16 18 22 20 18 15 13 12 11 9 9 11
27 28 25 26 28 27 21 14 14 16 13 14 20 19 13 9 10 11 9 4 9 8 6 7 8 14 11 14 15 16 16 15 14 15 15 17 17 18 19 23 22 19 17 15 14 14 13 12 12
26 28 29 31 32 33 31 20 16 17 17 13 16 15 10 10 10 11 12 10 5 5 7 8 8 12 14 16 18 18 17 16 16 16 16 17 17 19 18 19 19 20 19 18 18 19 17 16 15
31 32 32 32 32 31 32 23 17 16 22 22 16 17 12 10 13 12 13 11 11 8 7 8 8 10 16 15 17 19 18 16 16 16 16 17 17 20 19 20 20 20 21 22 22 21 22 21 19
Wind_Direction
161 157 118 112 88 52 54 170 67 76 88 65 46 49 42 43 61 70 75 86 127 127 116 106 129 168 208 171 141 117 106 83 75 78 76 77 80 79 89 80 58 58 53 40 28 7 13 22 47
202 181 84 72 33 22 98 115 64 69 90 75 58 49 43 48 46 70 74 57 186 185 137 107 104 168 125 126 139 122 109 90 82 79 77 61 253 108 85 90 72 59 41 46 32 10 1 11 356
221 220 285 306 293 343 360 325 358 106 26 43 57 53 37 46 47 45 66 39 158 157 152 148 156 195 152 156 121 130 98 77 75 75 77 56 58 255 228 87 81 51 43 46 35 15 3 6 10
252 279 289 298 314 46 12 354 69 256 287 141 115 24 31 38 44 47 61 352 241 212 201 195 193 191 167 170 131 117 93 76 66 63 49 357 220 251 206 100 86 55 46 50 33 26 6 18 48
257 279 293 294 328 353 21 12 359 2 63 181 189 286 324 47 34 51 75 273 270 251 220 184 206 186 192 203 142 172 106 69 59 351 312 333 289 248 220 108 71 53 56 56 28 20 27 63 68
267 274 264 264 255 306 317 310 352 16 313 286 271 263 262 352 11 15 239 241 265 262 243 194 191 210 197 209 178 197 162 73 55 338 351 338 51 60 97 105 64 53 62 44 13 7 28 41 56
257 262 277 265 260 275 283 275 292 286 285 280 285 301 254 240 304 318 254 241 253 260 251 228 197 198 198 218 220 205 178 146 294 15 344 33 150 184 71 73 60 66 63 24 359 25 26 38 50
276 264 275 280 330 316 277 267 265 268 268 278 293 297 310 265 274 283 261 242 242 250 253 236 222 195 199 210 212 183 164 173 249 13 10 16 67 107 100 73 67 80 52 27 6 46 40 54 38
340 189 178 252 300 291 280 310 320 306 267 266 272 290 245 264 274 274 256 238 239 244 240 234 230 203 201 212 214 196 175 315 57 329 351 30 48 95 75 71 70 76 43 39 33 57 50 49 41
22 196 223 274 287 290 304 308 356 352 296 254 255 238 236 260 266 272 259 238 234 242 239 236 231 203 202 203 208 201 197 194 177 220 312 35 49 108 91 71 78 99 22 30 70 100 75 48 52
38 227 277 276 284 305 312 300 36 32 4 272 276 219 263 267 252 267 262 244 234 239 235 226 230 219 209 207 206 187 197 201 206 212 242 22 100 131 131 90 82 98 43 68 81 129 81 64 114
157 253 256 260 295 302 312 16 78 74 64 20 337 272 269 257 239 256 260 251 234 235 232 231 222 219 205 211 207 187 196 195 207 218 208 69 166 156 163 72 182 99 107 80 102 116 106 100 93
114 226 241 259 288 300 274 303 73 50 336 299 289 282 276 257 251 266 280 251 232 236 231 232 228 221 218 214 208 192 195 195 205 218 171 170 175 175 141 122 138 170 207 112 110 104 118 106 97
58 272 295 289 303 298 269 240 213 251 295 308 308 289 284 275 254 266 276 280 240 245 238 231 235 225 230 242 223 203 197 195 205 203 197 195 194 184 161 81 172 179 137 160 119 117 116 97 95
44 329 321 314 294 307 312 271 236 230 282 296 305 302 293 272 261 258 254 281 261 251 251 244 233 229 229 221 205 190 194 199 200 201 199 202 205 178 151 198 182 149 141 140 138 137 128 120 109
7 346 317 311 298 296 299 286 261 239 245 285 297 307 304 260 233 233 252 266 264 251 248 241 237 226 219 181 181 186 194 210 205 201 205 173 193 190 236 95 148 163 150 148 148 139 129 120 109
7 342 313 316 310 292 295 287 288 257 253 265 278 288 291 248 224 224 239 252 254 253 254 246 242 225 211 195 195 206 203 206 212 188 179 178 191 181 206 164 161 160 170 155 162 148 130 121 120
346 338 331 339 345 318 294 288 286 290 240 255 269 278 276 275 268 232 227 236 245 249 249 250 251 236 219 213 214 203 202 201 206 184 182 193 187 190 213 175 171 178 182 189 165 168 156 151 146
316 327 336 338 353 341 329 297 276 270 280 247 266 270 279 271 269 249 249 234 231 249 249 249 248 239 226 217 219 206 208 212 210 181 170 167 181 205 220 193 220 228 197 178 176 167 160 154 153
306 312 321 325 339 339 331 283 285 260 273 271 265 274 284 277 277 274 262 244 233 238 237 248 240 239 235 232 228 209 192 200 200 175 167 174 180 156 157 181 187 169 175 176 182 173 164 164 150
299 297 310 312 320 325 324 294 284 265 260 267 264 294 298 286 272 285 263 244 232 229 212 224 229 234 236 247 243 213 198 199 199 192 186 191 196 187 181 188 180 180 168 181 180 171 163 154 151
289 283 293 296 307 316 312 304 266 261 268 282 309 301 301 288 269 283 283 260 242 239 221 222 230 231 229 237 225 202 199 201 198 194 191 201 206 206 172 177 186 184 178 172 180 167 176 174 169
270 284 284 288 295 313 308 320 258 261 279 329 322 335 352 289 294 301 300 268 238 239 237 227 229 220 218 216 212 202 186 187 198 203 208 215 203 190 180 170 161 167 180 191 191 194 214 221 227
279 269 269 273 285 301 302 312 235 266 276 287 1 312 305 291 284 305 300 247 234 239 234 254 250 240 221 217 203 197 197 190 193 206 203 200 204 195 187 175 171 173 179 188 178 188 189 216 223
263 261 264 267 279 297 297 303 232 251 200 225 341 308 306 294 285 280 250 233 257 257 255 267 288 236 225 215 209 192 184 193 190 206 204 199 199 199 201 193 191 183 179 171 189 203 207 216 211
257 259 266 274 281 283 290 300 245 226 237 220 255 270 307 319 307 256 252 226 224 242 258 264 265 241 234 219 207 205 195 196 201 187 188 187 199 211 213 203 204 208 198 182 178 189 206 208 197
258 260 262 269 279 287 284 294 280 227 238 243 243 254 262 281 290 300 261 253 242 242 243 246 254 242 232 225 212 206 213 212 220 214 210 209 205 208 213 207 207 212 214 207 200 199 202 202 209
264 262 263 267 275 282 285 282 286 229 226 247 246 247 251 268 285 305 314 294 279 254 254 255 246 234 241 232 220 212 215 216 210 218 218 216 209 212 210 210 216 214 219 222 223 220 215 209 215
262 266 268 271 270 274 279 278 267 246 214 220 232 243 262 276 284 282 310 311 313 257 251 260 241 232 243 245 227 217 216 222 222 216 224 223 217 218 216 214 219 222 225 229 233 236 237 225 217
249 255 261 265 270 269 269 268 265 262 244 228 237 242 252 279 275 279 290 300 295 286 278 261 246 244 237 241 235 223 221 220 226 229 224 231 229 218 222 219 221 225 227 229 232 237 242 244 237
Height
5909 5910 5909 5909 5912 5909 5910 5910 5906 5907 5908 5908 5906 5906 5905 5903 5902 5905 5902 5901 5901 5901 5900 5901 5901 5902 5902 5903 5903 5903 5903 5903 5905 5905 5905 5905 5905 5906 5906 5907 5908 5907 5906 5906 5906 5905 5904 5903 5905
5910 5910 5909 5909 5910 5909 5910 5910 5909 5908 5907 5908 5907 5906 5905 5904 5903 5902 5902 5901 5901 5901 5901 5902 5903 5903 5903 5903 5902 5904 5906 5906 5906 5905 5906 5907 5905 5906 5907 5906 5907 5906 5907 5905 5905 5903 5903 5902 5903
5910 5910 5911 5910 5910 5910 5910 5909 5908 5909 5907 5907 5908 5907 5905 5904 5903 5902 5902 5901 5902 5901 5901 5902 5904 5904 5904 5904 5903 5906 5908 5907 5906 5907 5907 5906 5906 5906 5906 5906 5906 5906 5906 5906 5905 5903 5902 5901 5902
5909 5910 5912 5911 5911 5911 5910 5909 5907 5907 5907 5907 5908 5906 5905 5903 5902 5902 5902 5901 5901 5902 5902 5902 5904 5904 5905 5905 5905 5906 5908 5907 5906 5908 5907 5906 5906 5907 5906 5907 5907 5906 5906 5904 5904 5902 5901 5901 5901
5909 5910 5912 5912 5912 5911 5910 5908 5907 5906 5906 5907 5907 5906 5905 5903 5902 5901 5901 5900 5900 5900 5901 5902 5903 5904 5904 5904 5906 5908 5909 5907 5908 5908 5908 5907 5906 5906 5905 5906 5907 5906 5906 5905 5904 5903 5901 5901 5900
5910 5911 5912 5912 5911 5912 5910 5908 5907 5906 5906 5905 5906 5905 5904 5902 5901 5900 5900 5900 5899 5899 5900 5901 5903 5904 5904 5904 5906 5907 5908 5908 5908 5909 5908 5906 5905 5906 5906 5906 5907 5907 5906 5904 5904 5903 5902 5902 5899
5909 5909 5909 5910 5910 5911 5910 5907 5907 5906 5905 5904 5904 5904 5903 5901 5901 5900 5900 5899 5899 5899 5900 5900 5901 5902 5903 5904 5905 5907 5907 5908 5908 5908 5908 5907 5904 5906 5907 5906 5906 5906 5906 5905 5905 5903 5903 5903 5900
5907 5908 5908 5908 5909 5909 5908 5907 5906 5906 5905 5904 5903 5902 5901 5900 5900 5899 5898 5898 5898 5898 5899 5899 5900 5901 5903 5904 5905 5907 5908 5908 5908 5907 5908 5907 5908 5909 5908 5907 5907 5906 5905 5905 5905 5904 5904 5903 5902
5907 5908 5908 5908 5909 5909 5908 5906 5905 5904 5903 5903 5902 5901 5901 5900 5899 5898 5897 5897 5897 5897 5898 5898 5899 5900 5902 5903 5905 5905 5907 5906 5907 5907 5907 5908 5909 5909 5908 5907 5907 5907 5906 5906 5905 5905 5905 5903 5905
5907 5908 5908 5908 5908 5907 5906 5905 5904 5903 5901 5900 5899 5898 5899 5898 5898 5897 5896 5896 5896 5897 5897 5897 5897 5899 5900 5901 5903 5904 5905 5906 5906 5906 5906 5907 5909 5909 5909 5908 5908 5908 5908 5906 5906 5906 5906 5904 5906
5908 5908 5908 5907 5907 5906 5905 5904 5902 5901 5900 5899 5898 5897 5897 5898 5897 5897 5896 5895 5895 5896 5896 5896 5896 5897 5899 5899 5901 5902 5903 5904 5905 5906 5906 5906 5908 5909 5909 5909 5909 5908 5908 5906 5906 5906 5906 5906 5906
5906 5907 5907 5906 5906 5905 5904 5902 5900 5899 5899 5897 5897 5896 5896 5897 5896 5896 5894 5893 5893 5895 5896 5895 5895 5896 5897 5897 5899 5901 5902 5903 5904 5904 5905 5906 5908 5908 5909 5909 5909 5909 5908 5907 5907 5908 5907 5908 5907
5906 5907 5906 5905 5905 5905 5903 5901 5899 5898 5898 5896 5896 5894 5894 5894 5894 5894 5893 5892 5893 5893 5894 5895 5895 5895 5897 5897 5898 5899 5900 5902 5902 5902 5904 5905 5906 5907 5909 5909 5910 5910 5909 5908 5909 5909 5910 5909 5909
5907 5907 5907 5905 5905 5903 5902 5900 5899 5898 5897 5896 5894 5893 5893 5893 5892 5892 5891 5890 5890 5891 5892 5893 5894 5894 5895 5895 5896 5898 5899 5899 5900 5901 5903 5903 5905 5907 5907 5908 5910 5910 5908 5909 5910 5911 5912 5910 5911
5907 5907 5906 5905 5904 5904 5902 5900 5898 5897 5896 5895 5894 5892 5891 5890 5889 5889 5889 5888 5889 5889 5889 5891 5892 5893 5894 5894 5894 5895 5897 5898 5899 5901 5902 5903 5904 5906 5907 5907 5909 5910 5910 5910 5911 5912 5912 5911 5912
5906 5906 5905 5904 5903 5903 5902 5900 5898 5895 5894 5893 5892 5890 5889 5887 5887 5886 5887 5886 5887 5888 5888 5890 5890 5891 5891 5892 5894 5895 5896 5898 5899 5901 5901 5901 5903 5904 5905 5907 5908 5910 5911 5912 5913 5913 5912 5913 5913
5907 5906 5905 5903 5901 5900 5900 5898 5897 5895 5893 5892 5890 5888 5887 5886 5885 5884 5884 5885 5885 5885 5886 5888 5889 5889 5890 5891 5892 5894 5895 5897 5898 5901 5901 5900 5902 5904 5905 5907 5909 5910 5912 5913 5913 5914 5914 5914 5915
5906 5905 5904 5902 5902 5898 5897 5896 5895 5894 5892 5890 5889 5887 5886 5884 5884 5883 5882 5883 5884 5883 5884 5885 5886 5887 5888 5888 5890 5892 5893 5895 5896 5900 5900 5900 5901 5903 5904 5907 5908 5910 5911 5913 5914 5914 5915 5915 5917
5905 5904 5903 5900 5901 5899 5897 5895 5893 5892 5891 5889 5888 5886 5885 5883 5882 5882 5881 5880 5882 5882 5881 5882 5884 5885 5886 5886 5887 5889 5890 5892 5895 5898 5899 5900 5901 5902 5902 5905 5907 5908 5911 5913 5914 5915 5916 5916 5917
5902 5900 5899 5900 5899 5899 5897 5893 5891 5890 5889 5888 5887 5884 5883 5881 5881 5880 5879 5881 5881 5879 5879 5880 5881 5883 5883 5884 5885 5886 5888 5890 5894 5897 5899 5900 5900 5901 5902 5904 5906 5907 5910 5913 5914 5916 5917 5916 5917
5899 5898 5897 5897 5897 5896 5896 5893 5891 5889 5888 5885 5884 5884 5882 5879 5878 5879 5880 5880 5879 5877 5877 5878 5879 5881 5881 5882 5882 5883 5885 5888 5892 5895 5898 5899 5900 5901 5902 5903 5906 5907 5909 5911 5913 5914 5916 5917 5919
5896 5894 5895 5894 5894 5895 5893 5893 5890 5889 5886 5884 5883 5881 5880 5878 5876 5878 5878 5878 5877 5876 5876 5877 5878 5879 5880 5880 5879 5880 5882 5885 5889 5893 5897 5899 5899 5899 5903 5903 5905 5908 5909 5911 5913 5914 5916 5918 5919
5893 5890 5891 5891 5891 5892 5889 5890 5889 5888 5886 5885 5882 5879 5877 5875 5875 5876 5875 5874 5875 5874 5875 5876 5878 5878 5879 5879 5878 5879 5882 5885 5889 5893 5895 5897 5899 5900 5902 5903 5905 5907 5908 5911 5912 5914 5915 5917 5919
5889 5888 5887 5888 5888 5890 5887 5888 5888 5887 5886 5884 5881 5878 5876 5873 5873 5873 5873 5871 5872 5873 5874 5875 5878 5879 5878 5879 5879 5879 5881 5883 5886 5890 5893 5896 5898 5899 5901 5903 5905 5907 5908 5910 5911 5913 5914 5916 5918
5883 5882 5883 5886 5885 5886 5884 5884 5885 5884 5884 5882 5880 5878 5876 5873 5871 5871 5871 5871 5871 5872 5874 5876 5876 5877 5878 5879 5880 5879 5880 5883 5885 5888 5890 5893 5896 5898 5900 5902 5904 5907 5908 5909 5911 5912 5914 5915 5916
5878 5879 5880 5879 5881 5883 5881 5881 5881 5881 5881 5880 5878 5876 5874 5872 5871 5870 5869 5868 5869 5870 5871 5873 5875 5876 5877 5878 5879 5880 5881 5882 5884 5886 5889 5891 5894 5897 5899 5901 5903 5905 5906 5908 5909 5911 5913 5915 5916
5875 5875 5876 5876 5876 5877 5879 5879 5878 5877 5877 5878 5876 5874 5873 5871 5869 5868 5868 5868 5868 5868 5869 5870 5871 5873 5875 5876 5878 5879 5880 5882 5883 5885 5887 5890 5892 5894 5896 5898 5900 5902 5905 5906 5908 5910 5912 5914 5916
5871 5872 5873 5872 5871 5872 5874 5875 5875 5874 5875 5875 5874 5874 5873 5870 5867 5866 5865 5865 5866 5866 5867 5867 5868 5871 5873 5874 5876 5878 5880 5881 5883 5884 5886 5888 5890 5892 5893 5896 5898 5900 5903 5905 5907 5908 5910 5912 5914
5866 5866 5867 5867 5868 5866 5867 5871 5871 5872 5872 5872 5872 5873 5872 5870 5867 5865 5864 5863 5862 5863 5864 5864 5866 5867 5869 5872 5874 5876 5877 5878 5880 5882 5884 5887 5888 5890 5891 5894 5897 5899 5901 5902 5904 5906 5907 5909 5910
5860 5860 5860 5859 5860 5859 5860 5864 5866 5867 5868 5869 5869 5869 5869 5868 5866 5864 5863 5862 5860 5860 5860 5861 5863 5864 5866 5869 5871 5874 5875 5876 5877 5879 5880 5883 5885 5887 5889 5892 5893 5895 5897 5899 5900 5902 5904 5906 5907